Time,TemperatureF,DewpointF,PressureIn,WindDirection,WindDirectionDegrees,WindSpeedMPH,WindSpeedGustMPH,Humidity,HourlyPrecipIn,Conditions,Clouds,dailyrainin,SolarRadiationWatts/m^2,SoftwareType,DateUTC
2013-04-09 00:00:00,65.0,55.8,29.97,WSW,254,4.0,5.0,72,0.00,,---,0.00,0.00,VWS V14.00,2013-04-09 04:00:00,
2013-04-09 00:03:00,65.0,55.8,29.97,WSW,242,4.0,5.0,72,0.00,,---,0.00,0.00,VWS V14.00,2013-04-09 04:03:00,
2013-04-09 00:10:00,65.0,55.8,29.97,West,261,0.0,5.0,72,0.00,,---,0.00,0.00,VWS V14.00,2013-04-09 04:10:00,
2013-04-09 00:15:00,64.9,55.7,29.97,West,269,2.0,4.0,72,0.00,,---,0.00,0.00,VWS V14.00,2013-04-09 04:15:00,
2013-04-09 00:19:00,64.8,55.6,29.97,West,269,0.0,2.0,72,0.00,,---,0.00,0.00,VWS V14.00,2013-04-09 04:19:00,
2013-04-09 00:24:00,64.7,55.5,29.97,West,265,0.0,4.0,72,0.00,,---,0.00,0.00,VWS V14.00,2013-04-09 04:24:00,
2013-04-09 00:25:00,64.7,55.5,29.97,West,261,4.0,4.0,72,0.00,,---,0.00,0.00,VWS V14.00,2013-04-09 04:25:00,
2013-04-09 00:30:00,64.6,55.8,29.98,WSW,255,0.0,4.0,73,0.00,,---,0.00,0.00,VWS V14.00,2013-04-09 04:30:00,
2013-04-09 00:35:00,64.5,55.7,29.98,WSW,243,0.0,5.0,73,0.00,,---,0.00,0.00,VWS V14.00,2013-04-09 04:35:00,
2013-04-09 00:40:00,64.3,55.5,29.98,SW,232,0.0,5.0,73,0.00,,---,0.00,0.00,VWS V14.00,2013-04-09 04:40:00,
2013-04-09 00:45:00,64.3,55.5,29.98,SW,232,0.0,5.0,73,0.00,,---,0.00,0.00,VWS V14.00,2013-04-09 04:45:00,
2013-04-09 00:50:00,64.2,55.4,29.98,SW,232,0.0,3.0,73,0.00,,---,0.00,0.00,VWS V14.00,2013-04-09 04:50:00,
2013-04-09 00:55:00,64.1,55.3,29.99,SW,232,0.0,3.0,73,0.00,,---,0.00,0.00,VWS V14.00,2013-04-09 04:55:00,
2013-04-09 01:04:00,63.9,55.5,29.99,SW,232,1.0,2.0,74,0.00,,---,0.00,0.00,VWS V14.00,2013-04-09 05:04:00,
2013-04-09 01:09:00,63.9,55.5,29.99,SW,232,0.0,4.0,74,0.00,,---,0.00,0.00,VWS V14.00,2013-04-09 05:09:00,
2013-04-09 01:14:00,63.9,55.5,29.99,SW,232,3.0,4.0,74,0.00,,---,0.00,0.00,VWS V14.00,2013-04-09 05:14:00,
2013-04-09 01:19:00,63.9,55.5,29.99,SW,232,1.0,4.0,74,0.00,,---,0.00,0.00,VWS V14.00,2013-04-09 05:19:00,
2013-04-09 01:24:00,63.9,55.5,29.99,SW,232,2.0,4.0,74,0.00,,---,0.00,0.00,VWS V14.00,2013-04-09 05:24:00,
2013-04-09 01:29:00,64.0,55.2,29.99,SW,230,4.0,5.0,73,0.00,,---,0.00,0.00,VWS V14.00,2013-04-09 05:29:00,
2013-04-09 01:34:00,64.1,55.3,29.99,SW,230,0.0,4.0,73,0.00,,---,0.00,0.00,VWS V14.00,2013-04-09 05:34:00,
2013-04-09 01:39:00,64.0,55.2,29.99,SW,229,1.0,4.0,73,0.00,,---,0.00,0.00,VWS V14.00,2013-04-09 05:39:00,
2013-04-09 01:44:00,63.9,55.5,29.99,SW,229,0.0,3.0,74,0.00,,---,0.00,0.00,VWS V14.00,2013-04-09 05:44:00,
2013-04-09 01:49:00,63.7,55.3,29.99,SW,227,1.0,5.0,74,0.00,,---,0.00,0.00,VWS V14.00,2013-04-09 05:49:00,
2013-04-09 01:54:00,63.7,55.3,29.99,SW,227,2.0,5.0,74,0.00,,---,0.00,0.00,VWS V14.00,2013-04-09 05:54:00,
2013-04-09 01:59:00,63.6,55.2,29.99,SW,227,2.0,5.0,74,0.00,,---,0.00,0.00,VWS V14.00,2013-04-09 05:59:00,
2013-04-09 02:04:00,63.5,55.1,29.99,SW,225,1.0,5.0,74,0.00,,---,0.00,0.00,VWS V14.00,2013-04-09 06:04:00,
2013-04-09 02:09:00,63.3,54.9,29.99,SW,226,5.0,5.0,74,0.00,,---,0.00,0.00,VWS V14.00,2013-04-09 06:09:00,
2013-04-09 02:14:00,63.3,54.9,29.99,SW,225,2.0,5.0,74,0.00,,---,0.00,0.00,VWS V14.00,2013-04-09 06:14:00,
2013-04-09 02:19:00,63.2,54.8,29.99,SW,225,0.0,5.0,74,0.00,,---,0.00,0.00,VWS V14.00,2013-04-09 06:19:00,
2013-04-09 02:24:00,63.1,55.1,29.99,SW,225,4.0,5.0,75,0.00,,---,0.00,0.00,VWS V14.00,2013-04-09 06:24:00,
2013-04-09 02:29:00,63.0,55.0,29.99,SW,225,0.0,4.0,75,0.00,,---,0.00,0.00,VWS V14.00,2013-04-09 06:29:00,
2013-04-09 02:34:00,62.8,54.8,29.98,SW,221,5.0,5.0,75,0.00,,---,0.00,0.00,VWS V14.00,2013-04-09 06:34:00,
2013-04-09 02:39:00,62.7,54.7,29.98,SW,221,0.0,5.0,75,0.00,,---,0.00,0.00,VWS V14.00,2013-04-09 06:39:00,
2013-04-09 02:44:00,62.4,54.8,29.98,SW,221,0.0,2.0,76,0.00,,---,0.00,0.00,VWS V14.00,2013-04-09 06:44:00,
2013-04-09 02:49:00,61.8,54.2,29.98,SW,221,0.0,3.0,76,0.00,,---,0.00,0.00,VWS V14.00,2013-04-09 06:49:00,
2013-04-09 02:55:00,61.4,54.1,29.98,SW,221,2.0,2.0,77,0.00,,---,0.00,0.00,VWS V14.00,2013-04-09 06:55:00,
2013-04-09 03:00:00,61.1,54.2,29.98,SSW,207,1.0,5.0,78,0.00,,---,0.00,0.00,VWS V14.00,2013-04-09 07:00:00,
2013-04-09 03:05:00,60.9,54.3,29.97,SSE,157,1.0,1.0,79,0.00,,---,0.00,0.00,VWS V14.00,2013-04-09 07:05:00,
2013-04-09 03:10:00,60.8,54.3,29.98,South,185,3.0,4.0,79,0.00,,---,0.00,0.00,VWS V14.00,2013-04-09 07:10:00,
2013-04-09 03:15:00,60.9,54.3,29.98,South,180,1.0,2.0,79,0.00,,---,0.00,0.00,VWS V14.00,2013-04-09 07:15:00,
2013-04-09 03:20:00,60.8,54.3,29.98,South,180,0.0,0.0,79,0.00,,---,0.00,0.00,VWS V14.00,2013-04-09 07:20:00,
2013-04-09 03:25:00,60.8,54.3,29.98,South,180,2.0,2.0,79,0.00,,---,0.00,0.00,VWS V14.00,2013-04-09 07:25:00,
2013-04-09 03:30:00,60.8,54.3,29.98,South,180,2.0,3.0,79,0.00,,---,0.00,0.00,VWS V14.00,2013-04-09 07:30:00,
2013-04-09 03:35:00,60.7,54.2,29.98,South,180,2.0,2.0,79,0.00,,---,0.00,0.00,VWS V14.00,2013-04-09 07:35:00,
2013-04-09 03:40:00,60.6,54.1,29.98,South,180,0.0,0.0,79,0.00,,---,0.00,0.00,VWS V14.00,2013-04-09 07:40:00,
2013-04-09 03:45:00,60.5,54.0,29.98,South,180,0.0,0.0,79,0.00,,---,0.00,0.00,VWS V14.00,2013-04-09 07:45:00,
2013-04-09 03:50:00,60.5,54.3,29.98,South,180,0.0,0.0,80,0.00,,---,0.00,0.00,VWS V14.00,2013-04-09 07:50:00,
2013-04-09 03:55:00,60.4,54.2,29.98,South,180,0.0,0.0,80,0.00,,---,0.00,0.00,VWS V14.00,2013-04-09 07:55:00,
2013-04-09 04:00:00,60.3,54.1,29.99,South,180,0.0,0.0,80,0.00,,---,0.00,0.00,VWS V14.00,2013-04-09 08:00:00,
2013-04-09 04:05:00,60.1,53.9,29.98,South,180,1.0,1.0,80,0.00,,---,0.00,0.00,VWS V14.00,2013-04-09 08:05:00,
2013-04-09 04:10:00,60.0,53.8,29.98,South,180,0.0,1.0,80,0.00,,---,0.00,0.00,VWS V14.00,2013-04-09 08:10:00,
2013-04-09 04:15:00,59.8,54.0,29.99,South,180,0.0,0.0,81,0.00,,---,0.00,0.00,VWS V14.00,2013-04-09 08:15:00,
2013-04-09 04:20:00,59.7,53.9,29.98,South,180,0.0,0.0,81,0.00,,---,0.00,0.00,VWS V14.00,2013-04-09 08:20:00,
2013-04-09 04:25:00,59.6,53.8,29.99,South,180,0.0,0.0,81,0.00,,---,0.00,0.00,VWS V14.00,2013-04-09 08:25:00,
2013-04-09 04:30:00,59.5,53.7,29.99,South,180,0.0,0.0,81,0.00,,---,0.00,0.00,VWS V14.00,2013-04-09 08:30:00,
2013-04-09 04:35:00,59.4,53.6,29.99,South,180,0.0,0.0,81,0.00,,---,0.00,0.00,VWS V14.00,2013-04-09 08:35:00,
2013-04-09 04:40:00,59.4,53.9,29.99,South,180,0.0,1.0,82,0.00,,---,0.00,0.00,VWS V14.00,2013-04-09 08:40:00,
2013-04-09 04:45:00,59.3,53.8,29.99,South,180,0.0,0.0,82,0.00,,---,0.00,0.00,VWS V14.00,2013-04-09 08:45:00,
2013-04-09 04:50:00,59.3,53.8,29.99,South,180,0.0,0.0,82,0.00,,---,0.00,0.00,VWS V14.00,2013-04-09 08:50:00,
2013-04-09 04:55:00,59.2,53.7,29.98,South,180,0.0,0.0,82,0.00,,---,0.00,0.00,VWS V14.00,2013-04-09 08:55:00,
2013-04-09 05:00:00,59.1,53.6,29.99,South,180,0.0,0.0,82,0.00,,---,0.00,0.00,VWS V14.00,2013-04-09 09:00:00,
2013-04-09 05:05:00,59.1,53.6,29.99,South,180,0.0,0.0,82,0.00,,---,0.00,0.00,VWS V14.00,2013-04-09 09:05:00,
2013-04-09 05:10:00,59.0,53.5,29.99,South,180,2.0,2.0,82,0.00,,---,0.00,0.00,VWS V14.00,2013-04-09 09:10:00,
2013-04-09 05:15:00,58.9,53.4,29.99,South,180,1.0,2.0,82,0.00,,---,0.00,0.00,VWS V14.00,2013-04-09 09:15:00,
2013-04-09 05:21:00,58.9,53.4,29.99,South,180,0.0,0.0,82,0.00,,---,0.00,0.00,VWS V14.00,2013-04-09 09:21:00,
2013-04-09 05:26:00,58.8,53.3,29.99,South,180,0.0,0.0,82,0.00,,---,0.00,0.00,VWS V14.00,2013-04-09 09:26:00,
2013-04-09 05:35:00,58.6,53.5,29.99,South,180,2.0,2.0,83,0.00,,---,0.00,0.00,VWS V14.00,2013-04-09 09:35:00,
2013-04-09 05:40:00,58.5,53.4,29.99,South,180,0.0,2.0,83,0.00,,---,0.00,0.00,VWS V14.00,2013-04-09 09:40:00,
2013-04-09 05:45:00,58.5,53.4,29.99,South,180,0.0,2.0,83,0.00,,---,0.00,0.00,VWS V14.00,2013-04-09 09:45:00,
2013-04-09 05:50:00,58.4,53.3,29.99,South,180,1.0,2.0,83,0.00,,---,0.00,0.00,VWS V14.00,2013-04-09 09:50:00,
2013-04-09 05:56:00,58.4,53.3,30.00,South,180,1.0,2.0,83,0.00,,---,0.00,0.00,VWS V14.00,2013-04-09 09:56:00,
2013-04-09 06:01:00,58.4,53.3,30.00,South,180,0.0,0.0,83,0.00,,---,0.00,0.00,VWS V14.00,2013-04-09 10:01:00,
2013-04-09 06:06:00,58.4,53.3,30.00,South,180,0.0,1.0,83,0.00,,---,0.00,0.00,VWS V14.00,2013-04-09 10:06:00,
2013-04-09 06:11:00,58.3,53.2,30.00,South,180,1.0,3.0,83,0.00,,---,0.00,0.00,VWS V14.00,2013-04-09 10:11:00,
2013-04-09 06:16:00,58.4,53.3,30.00,South,180,1.0,2.0,83,0.00,,---,0.00,0.00,VWS V14.00,2013-04-09 10:16:00,
2013-04-09 06:21:00,58.4,53.3,30.00,South,180,1.0,2.0,83,0.00,,---,0.00,0.00,VWS V14.00,2013-04-09 10:21:00,
2013-04-09 06:26:00,58.4,53.3,30.00,South,179,2.0,2.0,83,0.00,,---,0.00,0.00,VWS V14.00,2013-04-09 10:26:00,
2013-04-09 06:31:00,58.6,53.5,30.00,South,179,2.0,4.0,83,0.00,,---,0.00,0.00,VWS V14.00,2013-04-09 10:31:00,
2013-04-09 06:36:00,58.7,53.6,30.00,South,179,2.0,4.0,83,0.00,,---,0.00,0.00,VWS V14.00,2013-04-09 10:36:00,
2013-04-09 06:42:00,58.8,53.7,30.00,South,179,1.0,4.0,83,0.00,,---,0.00,0.00,VWS V14.00,2013-04-09 10:42:00,
2013-04-09 06:47:00,58.9,53.8,30.01,South,176,0.0,2.0,83,0.00,,---,0.00,0.00,VWS V14.00,2013-04-09 10:47:00,
2013-04-09 06:52:00,58.9,53.8,30.01,South,176,0.0,2.0,83,0.00,,---,0.00,0.00,VWS V14.00,2013-04-09 10:52:00,
2013-04-09 06:57:00,58.9,53.8,30.01,South,176,1.0,3.0,83,0.00,,---,0.00,0.00,VWS V14.00,2013-04-09 10:57:00,
2013-04-09 07:02:00,58.9,53.8,30.01,South,176,2.0,4.0,83,0.00,,---,0.00,0.00,VWS V14.00,2013-04-09 11:02:00,
2013-04-09 07:07:00,58.9,53.8,30.01,South,176,2.0,4.0,83,0.00,,---,0.00,0.00,VWS V14.00,2013-04-09 11:07:00,
2013-04-09 07:12:00,58.9,53.8,30.01,South,176,0.0,1.0,83,0.00,,---,0.00,0.00,VWS V14.00,2013-04-09 11:12:00,
2013-04-09 07:17:00,58.9,53.8,30.01,SSE,167,0.0,4.0,83,0.00,,---,0.00,0.00,VWS V14.00,2013-04-09 11:17:00,
2013-04-09 07:22:00,59.1,54.0,30.02,SSE,167,0.0,0.0,83,0.00,,---,0.00,0.00,VWS V14.00,2013-04-09 11:22:00,
2013-04-09 07:27:00,59.2,53.7,30.02,SSW,194,0.0,0.0,82,0.00,,---,0.00,5.00,VWS V14.00,2013-04-09 11:27:00,
2013-04-09 07:32:00,59.4,53.9,30.02,SW,231,0.0,0.0,82,0.00,,---,0.00,9.00,VWS V14.00,2013-04-09 11:32:00,
2013-04-09 07:37:00,59.4,53.9,30.01,SW,231,0.0,2.0,82,0.00,,---,0.00,11.00,VWS V14.00,2013-04-09 11:37:00,
2013-04-09 07:42:00,59.5,54.0,30.02,SW,231,0.0,1.0,82,0.00,,---,0.00,21.00,VWS V14.00,2013-04-09 11:42:00,
2013-04-09 07:47:00,59.5,54.0,30.02,South,183,0.0,5.0,82,0.00,,---,0.00,32.00,VWS V14.00,2013-04-09 11:47:00,
2013-04-09 07:52:00,59.7,54.2,30.02,SSW,193,0.0,3.0,82,0.00,,---,0.00,28.00,VWS V14.00,2013-04-09 11:52:00,
2013-04-09 07:57:00,59.8,54.3,30.02,SW,223,2.0,7.0,82,0.00,,---,0.00,26.00,VWS V14.00,2013-04-09 11:57:00,
2013-04-09 08:02:00,60.0,54.5,30.02,SSW,213,0.0,5.0,82,0.00,,---,0.00,30.00,VWS V14.00,2013-04-09 12:02:00,
2013-04-09 08:07:00,60.3,54.5,30.02,SSW,199,7.0,8.0,81,0.00,,---,0.00,47.00,VWS V14.00,2013-04-09 12:07:00,
2013-04-09 08:12:00,60.8,54.6,30.02,SSW,210,4.0,5.0,80,0.00,,---,0.00,88.00,VWS V14.00,2013-04-09 12:12:00,
2013-04-09 08:17:00,61.2,55.0,30.02,SSW,212,2.0,6.0,80,0.00,,---,0.00,111.00,VWS V14.00,2013-04-09 12:17:00,
2013-04-09 08:22:00,61.6,55.0,30.02,SW,220,2.0,7.0,79,0.00,,---,0.00,148.00,VWS V14.00,2013-04-09 12:22:00,
2013-04-09 08:27:00,62.0,55.4,30.02,SSW,202,6.0,6.0,79,0.00,,---,0.00,149.00,VWS V14.00,2013-04-09 12:27:00,
2013-04-09 08:32:00,62.4,55.5,30.02,SW,217,4.0,7.0,78,0.00,,---,0.00,221.00,VWS V14.00,2013-04-09 12:32:00,
2013-04-09 08:37:00,62.7,55.4,30.02,WSW,237,8.0,9.0,77,0.00,,---,0.00,107.00,VWS V14.00,2013-04-09 12:37:00,
2013-04-09 08:45:00,62.9,55.6,30.02,SW,219,9.0,9.0,77,0.00,,---,0.00,155.00,VWS V14.00,2013-04-09 12:45:00,
2013-04-09 08:52:00,63.5,56.2,30.03,SW,227,4.0,8.0,77,0.00,,---,0.00,237.00,VWS V14.00,2013-04-09 12:52:00,
2013-04-09 08:57:00,63.8,56.1,30.03,WSW,238,6.0,9.0,76,0.00,,---,0.00,79.00,VWS V14.00,2013-04-09 12:57:00,
2013-04-09 09:02:00,63.9,56.2,30.03,SW,216,4.0,10.0,76,0.00,,---,0.00,109.00,VWS V14.00,2013-04-09 13:02:00,
2013-04-09 09:07:00,64.1,56.4,30.02,SSW,213,5.0,8.0,76,0.00,,---,0.00,229.00,VWS V14.00,2013-04-09 13:07:00,
2013-04-09 09:12:00,64.6,56.9,30.02,WSW,242,10.0,12.0,76,0.00,,---,0.00,362.00,VWS V14.00,2013-04-09 13:12:00,
2013-04-09 09:17:00,65.3,57.2,30.02,SSW,210,7.0,11.0,75,0.00,,---,0.00,121.00,VWS V14.00,2013-04-09 13:17:00,
2013-04-09 09:22:00,65.9,57.4,30.02,WSW,241,8.0,9.0,74,0.00,,---,0.00,98.00,VWS V14.00,2013-04-09 13:22:00,
2013-04-09 09:27:00,66.3,57.8,30.02,West,273,2.0,9.0,74,0.00,,---,0.00,97.00,VWS V14.00,2013-04-09 13:27:00,
2013-04-09 09:32:00,66.6,57.7,30.03,SW,224,8.0,9.0,73,0.00,,---,0.00,98.00,VWS V14.00,2013-04-09 13:32:00,
2013-04-09 09:37:00,66.8,57.9,30.03,WSW,249,2.0,10.0,73,0.00,,---,0.00,116.00,VWS V14.00,2013-04-09 13:37:00,
2013-04-09 09:42:00,67.0,57.7,30.03,SSW,209,6.0,14.0,72,0.00,,---,0.00,148.00,VWS V14.00,2013-04-09 13:42:00,
2013-04-09 09:47:00,67.2,57.9,30.03,WSW,242,8.0,14.0,72,0.00,,---,0.00,148.00,VWS V14.00,2013-04-09 13:47:00,
2013-04-09 09:52:00,67.4,58.1,30.03,WSW,240,3.0,8.0,72,0.00,,---,0.00,179.00,VWS V14.00,2013-04-09 13:52:00,
2013-04-09 09:57:00,67.5,58.2,30.03,WSW,238,4.0,13.0,72,0.00,,---,0.00,236.00,VWS V14.00,2013-04-09 13:57:00,
2013-04-09 10:02:00,67.8,58.1,30.02,SW,220,8.0,9.0,71,0.00,,---,0.00,260.00,VWS V14.00,2013-04-09 14:02:00,
2013-04-09 10:07:00,68.2,58.8,30.02,SW,222,5.0,10.0,72,0.00,,---,0.00,350.00,VWS V14.00,2013-04-09 14:07:00,
2013-04-09 10:12:00,68.6,59.2,30.02,SW,226,8.0,10.0,72,0.00,,---,0.00,283.00,VWS V14.00,2013-04-09 14:12:00,
2013-04-09 10:20:00,69.0,58.8,30.03,SW,233,12.0,12.0,70,0.00,,---,0.00,262.00,VWS V14.00,2013-04-09 14:20:00,
2013-04-09 10:29:00,69.5,59.3,30.03,WNW,291,6.0,12.0,70,0.00,,---,0.00,325.00,VWS V14.00,2013-04-09 14:29:00,
2013-04-09 10:34:00,69.8,59.6,30.03,SSW,213,8.0,13.0,70,0.00,,---,0.00,292.00,VWS V14.00,2013-04-09 14:34:00,
2013-04-09 10:39:00,70.0,59.4,30.03,SW,236,11.0,15.0,69,0.00,,---,0.00,441.00,VWS V14.00,2013-04-09 14:39:00,
2013-04-09 10:44:00,70.5,60.3,30.02,SW,229,8.0,12.0,70,0.00,,---,0.00,629.00,VWS V14.00,2013-04-09 14:44:00,
2013-04-09 10:49:00,71.1,60.4,30.02,WNW,293,4.0,15.0,69,0.00,,---,0.00,506.00,VWS V14.00,2013-04-09 14:49:00,
2013-04-09 10:54:00,71.6,61.3,30.02,WSW,249,5.0,11.0,70,0.00,,---,0.00,573.00,VWS V14.00,2013-04-09 14:54:00,
2013-04-09 10:59:00,72.0,60.9,30.02,SSW,200,11.0,13.0,68,0.00,,---,0.00,418.00,VWS V14.00,2013-04-09 14:59:00,
2013-04-09 11:04:00,72.3,60.7,30.02,WSW,250,3.0,14.0,67,0.00,,---,0.00,633.00,VWS V14.00,2013-04-09 15:04:00,
2013-04-09 11:09:00,72.5,60.9,30.01,SSW,200,6.0,12.0,67,0.00,,---,0.00,659.00,VWS V14.00,2013-04-09 15:09:00,
2013-04-09 11:14:00,72.8,61.2,30.02,SSW,201,10.0,12.0,67,0.00,,---,0.00,671.00,VWS V14.00,2013-04-09 15:14:00,
2013-04-09 11:19:00,73.2,61.2,30.02,WSW,246,3.0,15.0,66,0.00,,---,0.00,733.00,VWS V14.00,2013-04-09 15:19:00,
2013-04-09 11:24:00,73.4,61.4,30.01,South,187,10.0,15.0,66,0.00,,---,0.00,394.00,VWS V14.00,2013-04-09 15:24:00,
2013-04-09 11:29:00,73.6,61.5,30.01,WSW,240,8.0,12.0,66,0.00,,---,0.00,693.00,VWS V14.00,2013-04-09 15:29:00,
2013-04-09 11:34:00,73.8,61.3,30.01,SW,230,8.0,12.0,65,0.00,,---,0.00,596.00,VWS V14.00,2013-04-09 15:34:00,
2013-04-09 11:39:00,74.1,61.6,30.01,West,275,9.0,13.0,65,0.00,,---,0.00,596.00,VWS V14.00,2013-04-09 15:39:00,
2013-04-09 11:44:00,74.4,61.9,30.01,SW,214,7.0,18.0,65,0.00,,---,0.00,738.00,VWS V14.00,2013-04-09 15:44:00,
2013-04-09 11:49:00,74.6,61.6,30.01,WSW,251,12.0,20.0,64,0.00,,---,0.00,666.00,VWS V14.00,2013-04-09 15:49:00,
2013-04-09 11:54:00,74.9,62.3,30.01,WSW,250,11.0,19.0,65,0.00,,---,0.00,417.00,VWS V14.00,2013-04-09 15:54:00,
2013-04-09 11:59:00,75.5,62.0,30.01,SW,226,18.0,19.0,63,0.00,,---,0.00,758.00,VWS V14.00,2013-04-09 15:59:00,
2013-04-09 12:04:00,75.5,62.5,30.01,SW,227,10.0,18.0,64,0.00,,---,0.00,761.00,VWS V14.00,2013-04-09 16:04:00,
2013-04-09 12:09:00,75.7,62.7,30.00,WSW,247,9.0,15.0,64,0.00,,---,0.00,770.00,VWS V14.00,2013-04-09 16:09:00,
2013-04-09 12:14:00,76.0,62.0,30.00,WSW,250,8.0,15.0,62,0.00,,---,0.00,779.00,VWS V14.00,2013-04-09 16:14:00,
2013-04-09 12:19:00,76.0,62.0,30.00,WSW,252,13.0,19.0,62,0.00,,---,0.00,425.00,VWS V14.00,2013-04-09 16:19:00,
2013-04-09 12:25:00,76.1,62.2,30.00,SW,231,7.0,20.0,62,0.00,,---,0.00,803.00,VWS V14.00,2013-04-09 16:25:00,
2013-04-09 12:30:00,76.2,63.1,29.99,SSW,197,9.0,20.0,64,0.00,,---,0.00,816.00,VWS V14.00,2013-04-09 16:30:00,
2013-04-09 12:35:00,76.7,62.2,29.99,SW,235,7.0,16.0,61,0.00,,---,0.00,712.00,VWS V14.00,2013-04-09 16:35:00,
2013-04-09 12:40:00,76.8,62.3,29.98,SSW,194,13.0,19.0,61,0.00,,---,0.00,237.00,VWS V14.00,2013-04-09 16:40:00,
2013-04-09 12:45:00,76.6,62.2,29.99,WSW,239,10.0,15.0,61,0.00,,---,0.00,167.00,VWS V14.00,2013-04-09 16:45:00,
2013-04-09 12:50:00,77.1,62.6,29.98,WSW,254,11.0,14.0,61,0.00,,---,0.00,218.00,VWS V14.00,2013-04-09 16:50:00,
2013-04-09 12:55:00,77.2,62.2,29.98,WSW,247,9.0,13.0,60,0.00,,---,0.00,274.00,VWS V14.00,2013-04-09 16:55:00,
2013-04-09 13:00:00,77.1,62.2,29.99,SW,234,23.0,23.0,60,0.00,,---,0.00,334.00,VWS V14.00,2013-04-09 17:00:00,
2013-04-09 13:05:00,76.8,61.9,29.99,SW,236,13.0,16.0,60,0.00,,---,0.00,338.00,VWS V14.00,2013-04-09 17:05:00,
2013-04-09 13:10:00,76.7,61.8,29.99,SW,227,12.0,14.0,60,0.00,,---,0.00,311.00,VWS V14.00,2013-04-09 17:10:00,
2013-04-09 13:15:00,77.0,62.1,29.98,SW,232,7.0,7.0,60,0.00,,---,0.00,756.00,VWS V14.00,2013-04-09 17:15:00,
2013-04-09 13:20:00,77.3,61.4,29.98,West,270,8.0,18.0,58,0.00,,---,0.00,995.00,VWS V14.00,2013-04-09 17:20:00,
2013-04-09 13:25:00,77.5,61.6,29.98,WSW,237,12.0,14.0,58,0.00,,---,0.00,946.00,VWS V14.00,2013-04-09 17:25:00,
2013-04-09 13:30:00,77.8,61.9,29.98,WSW,237,15.0,15.0,58,0.00,,---,0.00,933.00,VWS V14.00,2013-04-09 17:30:00,
2013-04-09 13:35:00,77.8,61.4,29.97,SW,220,13.0,25.0,57,0.00,,---,0.00,925.00,VWS V14.00,2013-04-09 17:35:00,
2013-04-09 13:40:00,77.5,61.1,29.98,SSW,209,12.0,15.0,57,0.00,,---,0.00,281.00,VWS V14.00,2013-04-09 17:40:00,
2013-04-09 13:45:00,77.3,60.9,29.97,SSW,207,20.0,20.0,57,0.00,,---,0.00,320.00,VWS V14.00,2013-04-09 17:45:00,
2013-04-09 13:50:00,77.2,60.8,29.97,WSW,239,9.0,10.0,57,0.00,,---,0.00,308.00,VWS V14.00,2013-04-09 17:50:00,
2013-04-09 13:55:00,77.5,61.6,29.97,SW,219,11.0,11.0,58,0.00,,---,0.00,1042.00,VWS V14.00,2013-04-09 17:55:00,
2013-04-09 14:00:00,78.2,61.2,29.97,NW,309,4.0,16.0,56,0.00,,---,0.00,983.00,VWS V14.00,2013-04-09 18:00:00,
2013-04-09 14:05:00,78.4,61.4,29.97,SW,218,10.0,24.0,56,0.00,,---,0.00,953.00,VWS V14.00,2013-04-09 18:05:00,
2013-04-09 14:10:00,78.4,60.9,29.97,South,189,14.0,16.0,55,0.00,,---,0.00,990.00,VWS V14.00,2013-04-09 18:10:00,
2013-04-09 14:15:00,78.6,61.1,29.96,WSW,248,11.0,16.0,55,0.00,,---,0.00,969.00,VWS V14.00,2013-04-09 18:15:00,
2013-04-09 14:20:00,78.9,60.9,29.96,WNW,291,15.0,24.0,54,0.00,,---,0.00,308.00,VWS V14.00,2013-04-09 18:20:00,
2013-04-09 14:25:00,78.5,60.5,29.97,WSW,250,8.0,19.0,54,0.00,,---,0.00,919.00,VWS V14.00,2013-04-09 18:25:00,
2013-04-09 14:30:00,78.5,60.5,29.96,WSW,246,14.0,22.0,54,0.00,,---,0.00,1007.00,VWS V14.00,2013-04-09 18:30:00,
2013-04-09 14:35:00,78.9,60.3,29.96,WSW,239,6.0,26.0,53,0.00,,---,0.00,302.00,VWS V14.00,2013-04-09 18:35:00,
2013-04-09 14:40:00,78.9,60.3,29.96,SW,217,9.0,19.0,53,0.00,,---,0.00,972.00,VWS V14.00,2013-04-09 18:40:00,
2013-04-09 14:45:00,78.7,60.7,29.96,WNW,301,13.0,16.0,54,0.00,,---,0.00,930.00,VWS V14.00,2013-04-09 18:45:00,
2013-04-09 14:50:00,78.8,60.8,29.95,SW,217,14.0,16.0,54,0.00,,---,0.00,983.00,VWS V14.00,2013-04-09 18:50:00,
2013-04-09 14:55:00,78.8,60.2,29.95,SW,217,14.0,23.0,53,0.00,,---,0.00,919.00,VWS V14.00,2013-04-09 18:55:00,
2013-04-09 15:00:00,78.5,60.5,29.94,SSW,196,10.0,12.0,54,0.00,,---,0.00,925.00,VWS V14.00,2013-04-09 19:00:00,
2013-04-09 15:05:00,78.8,60.8,29.94,SW,217,7.0,10.0,54,0.00,,---,0.00,882.00,VWS V14.00,2013-04-09 19:05:00,
2013-04-09 15:10:00,79.0,60.4,29.93,West,266,14.0,19.0,53,0.00,,---,0.00,828.00,VWS V14.00,2013-04-09 19:10:00,
2013-04-09 15:15:00,79.3,60.7,29.92,SW,215,13.0,16.0,53,0.00,,---,0.00,826.00,VWS V14.00,2013-04-09 19:15:00,
2013-04-09 15:20:00,79.4,59.7,29.93,SSW,202,12.0,19.0,51,0.00,,---,0.00,809.00,VWS V14.00,2013-04-09 19:20:00,
2013-04-09 15:25:00,79.2,60.1,29.92,SW,214,9.0,20.0,52,0.00,,---,0.00,814.00,VWS V14.00,2013-04-09 19:25:00,
2013-04-09 15:31:00,79.3,60.2,29.92,WNW,282,11.0,13.0,52,0.00,,---,0.00,788.00,VWS V14.00,2013-04-09 19:31:00,
2013-04-09 15:36:00,79.4,60.3,29.92,WSW,257,7.0,12.0,52,0.00,,---,0.00,789.00,VWS V14.00,2013-04-09 19:36:00,
2013-04-09 15:41:00,79.3,60.7,29.92,WSW,249,6.0,12.0,53,0.00,,---,0.00,738.00,VWS V14.00,2013-04-09 19:41:00,
2013-04-09 15:46:00,79.5,60.3,29.92,SSW,194,7.0,14.0,52,0.00,,---,0.00,758.00,VWS V14.00,2013-04-09 19:46:00,
2013-04-09 15:51:00,79.6,59.9,29.92,WSW,248,6.0,18.0,51,0.00,,---,0.00,756.00,VWS V14.00,2013-04-09 19:51:00,
2013-04-09 15:56:00,79.6,60.4,29.92,SW,231,5.0,13.0,52,0.00,,---,0.00,740.00,VWS V14.00,2013-04-09 19:56:00,
2013-04-09 16:01:00,79.7,59.4,29.92,SSW,211,8.0,18.0,50,0.00,,---,0.00,719.00,VWS V14.00,2013-04-09 20:01:00,
2013-04-09 16:06:00,79.7,60.0,29.92,SW,219,13.0,21.0,51,0.00,,---,0.00,729.00,VWS V14.00,2013-04-09 20:06:00,
2013-04-09 16:11:00,79.5,59.8,29.92,West,264,8.0,12.0,51,0.00,,---,0.00,714.00,VWS V14.00,2013-04-09 20:11:00,
2013-04-09 16:20:00,79.5,60.3,29.91,West,262,12.0,25.0,52,0.00,,---,0.00,679.00,VWS V14.00,2013-04-09 20:20:00,
2013-04-09 16:25:00,79.7,59.4,29.91,SW,215,23.0,27.0,50,0.00,,---,0.00,668.00,VWS V14.00,2013-04-09 20:25:00,
2013-04-09 16:30:00,79.7,60.5,29.91,West,274,1.0,23.0,52,0.00,,---,0.00,656.00,VWS V14.00,2013-04-09 20:30:00,
2013-04-09 16:35:00,80.2,61.0,29.91,WNW,292,14.0,15.0,52,0.00,,---,0.00,642.00,VWS V14.00,2013-04-09 20:35:00,
2013-04-09 16:41:00,80.0,60.3,29.91,SW,233,13.0,21.0,51,0.00,,---,0.00,626.00,VWS V14.00,2013-04-09 20:41:00,
2013-04-09 16:46:00,79.7,60.0,29.91,WSW,245,9.0,18.0,51,0.00,,---,0.00,621.00,VWS V14.00,2013-04-09 20:46:00,
2013-04-09 16:52:00,79.8,60.1,29.91,West,277,6.0,11.0,51,0.00,,---,0.00,571.00,VWS V14.00,2013-04-09 20:52:00,
2013-04-09 16:57:00,80.0,60.3,29.91,SW,224,19.0,19.0,51,0.00,,---,0.00,591.00,VWS V14.00,2013-04-09 20:57:00,
2013-04-09 17:02:00,79.8,60.1,29.91,South,180,14.0,20.0,51,0.00,,---,0.00,561.00,VWS V14.00,2013-04-09 21:02:00,
2013-04-09 17:07:00,79.8,60.6,29.91,SSW,201,8.0,11.0,52,0.00,,---,0.00,534.00,VWS V14.00,2013-04-09 21:07:00,
2013-04-09 17:12:00,80.1,60.4,29.91,WNW,283,11.0,16.0,51,0.00,,---,0.00,522.00,VWS V14.00,2013-04-09 21:12:00,
2013-04-09 17:17:00,80.2,60.5,29.91,WSW,241,5.0,13.0,51,0.00,,---,0.00,522.00,VWS V14.00,2013-04-09 21:17:00,
2013-04-09 17:22:00,80.3,61.1,29.91,WSW,241,8.0,13.0,52,0.00,,---,0.00,510.00,VWS V14.00,2013-04-09 21:22:00,
2013-04-09 17:27:00,80.4,61.2,29.91,SSW,211,9.0,10.0,52,0.00,,---,0.00,506.00,VWS V14.00,2013-04-09 21:27:00,
2013-04-09 17:32:00,80.8,61.0,29.91,SSW,192,10.0,14.0,51,0.00,,---,0.00,485.00,VWS V14.00,2013-04-09 21:32:00,
2013-04-09 17:37:00,80.5,60.2,29.92,West,267,10.0,20.0,50,0.00,,---,0.00,454.00,VWS V14.00,2013-04-09 21:37:00,
2013-04-09 17:42:00,80.2,59.9,29.92,SW,230,15.0,16.0,50,0.00,,---,0.00,445.00,VWS V14.00,2013-04-09 21:42:00,
2013-04-09 17:47:00,79.8,60.1,29.92,WSW,253,8.0,14.0,51,0.00,,---,0.00,424.00,VWS V14.00,2013-04-09 21:47:00,
2013-04-09 17:52:00,79.7,60.5,29.92,WSW,257,10.0,15.0,52,0.00,,---,0.00,413.00,VWS V14.00,2013-04-09 21:52:00,
2013-04-09 17:57:00,79.7,60.5,29.92,SW,233,5.0,14.0,52,0.00,,---,0.00,397.00,VWS V14.00,2013-04-09 21:57:00,
2013-04-09 18:02:00,79.7,60.5,29.92,West,271,13.0,16.0,52,0.00,,---,0.00,359.00,VWS V14.00,2013-04-09 22:02:00,
2013-04-09 18:07:00,79.6,60.4,29.92,South,188,9.0,16.0,52,0.00,,---,0.00,339.00,VWS V14.00,2013-04-09 22:07:00,
2013-04-09 18:12:00,79.5,60.3,29.92,WNW,289,5.0,14.0,52,0.00,,---,0.00,316.00,VWS V14.00,2013-04-09 22:12:00,
2013-04-09 18:17:00,79.4,60.8,29.91,WNW,282,5.0,12.0,53,0.00,,---,0.00,288.00,VWS V14.00,2013-04-09 22:17:00,
2013-04-09 18:22:00,79.5,60.9,29.91,SSW,209,9.0,14.0,53,0.00,,---,0.00,241.00,VWS V14.00,2013-04-09 22:22:00,
2013-04-09 18:27:00,79.6,61.0,29.91,WSW,242,6.0,12.0,53,0.00,,---,0.00,225.00,VWS V14.00,2013-04-09 22:27:00,
2013-04-09 18:32:00,79.5,60.9,29.92,West,261,4.0,11.0,53,0.00,,---,0.00,227.00,VWS V14.00,2013-04-09 22:32:00,
2013-04-09 18:37:00,79.3,60.7,29.91,SW,232,9.0,12.0,53,0.00,,---,0.00,225.00,VWS V14.00,2013-04-09 22:37:00,
2013-04-09 18:42:00,79.1,61.0,29.91,SW,229,9.0,12.0,54,0.00,,---,0.00,176.00,VWS V14.00,2013-04-09 22:42:00,
2013-04-09 18:47:00,78.8,60.2,29.92,West,271,4.0,12.0,53,0.00,,---,0.00,156.00,VWS V14.00,2013-04-09 22:47:00,
2013-04-09 18:52:00,78.5,60.5,29.92,West,265,7.0,14.0,54,0.00,,---,0.00,142.00,VWS V14.00,2013-04-09 22:52:00,
2013-04-09 18:57:00,78.4,60.4,29.92,West,276,6.0,14.0,54,0.00,,---,0.00,139.00,VWS V14.00,2013-04-09 22:57:00,
2013-04-09 19:02:00,78.3,60.8,29.92,West,273,5.0,9.0,55,0.00,,---,0.00,93.00,VWS V14.00,2013-04-09 23:02:00,
2013-04-09 19:07:00,78.2,60.7,29.92,WSW,239,7.0,7.0,55,0.00,,---,0.00,97.00,VWS V14.00,2013-04-09 23:07:00,
2013-04-09 19:12:00,78.0,61.0,29.91,SW,229,10.0,10.0,56,0.00,,---,0.00,91.00,VWS V14.00,2013-04-09 23:12:00,
2013-04-09 19:17:00,78.0,61.0,29.91,WSW,248,2.0,10.0,56,0.00,,---,0.00,83.00,VWS V14.00,2013-04-09 23:17:00,
2013-04-09 19:22:00,77.9,61.0,29.91,WNW,284,5.0,10.0,56,0.00,,---,0.00,72.00,VWS V14.00,2013-04-09 23:22:00,
2013-04-09 19:27:00,77.7,60.8,29.92,SW,220,9.0,12.0,56,0.00,,---,0.00,67.00,VWS V14.00,2013-04-09 23:27:00,
2013-04-09 19:33:00,77.5,60.6,29.91,WSW,243,4.0,16.0,56,0.00,,---,0.00,56.00,VWS V14.00,2013-04-09 23:33:00,
2013-04-09 19:38:00,77.4,61.0,29.92,WSW,250,6.0,10.0,57,0.00,,---,0.00,40.00,VWS V14.00,2013-04-09 23:38:00,
2013-04-09 19:43:00,77.1,60.7,29.92,South,184,6.0,11.0,57,0.00,,---,0.00,32.00,VWS V14.00,2013-04-09 23:43:00,
2013-04-09 19:48:00,76.9,61.0,29.92,SW,236,6.0,12.0,58,0.00,,---,0.00,26.00,VWS V14.00,2013-04-09 23:48:00,
2013-04-09 19:53:00,76.7,60.8,29.91,WSW,242,7.0,12.0,58,0.00,,---,0.00,19.00,VWS V14.00,2013-04-09 23:53:00,
2013-04-09 19:58:00,76.6,60.7,29.91,WSW,243,5.0,12.0,58,0.00,,---,0.00,14.00,VWS V14.00,2013-04-09 23:58:00,
2013-04-09 20:03:00,76.3,60.9,29.91,SSW,200,8.0,9.0,59,0.00,,---,0.00,9.00,VWS V14.00,2013-04-10 00:03:00,
2013-04-09 20:08:00,76.1,60.8,29.91,SSW,196,9.0,14.0,59,0.00,,---,0.00,0.00,VWS V14.00,2013-04-10 00:08:00,
2013-04-09 20:13:00,75.9,61.0,29.91,SW,223,9.0,14.0,60,0.00,,---,0.00,0.00,VWS V14.00,2013-04-10 00:13:00,
2013-04-09 20:18:00,75.7,60.8,29.91,WSW,255,5.0,9.0,60,0.00,,---,0.00,0.00,VWS V14.00,2013-04-10 00:18:00,
2013-04-09 20:23:00,75.5,60.7,29.91,SSW,205,6.0,12.0,60,0.00,,---,0.00,0.00,VWS V14.00,2013-04-10 00:23:00,
2013-04-09 20:28:00,75.3,60.5,29.91,SSW,204,8.0,10.0,60,0.00,,---,0.00,0.00,VWS V14.00,2013-04-10 00:28:00,
2013-04-09 20:33:00,75.1,60.8,29.91,SW,217,7.0,12.0,61,0.00,,---,0.00,0.00,VWS V14.00,2013-04-10 00:33:00,
2013-04-09 20:38:00,75.0,60.7,29.91,WSW,252,7.0,14.0,61,0.00,,---,0.00,0.00,VWS V14.00,2013-04-10 00:38:00,
2013-04-09 20:43:00,74.8,60.9,29.91,SW,234,5.0,8.0,62,0.00,,---,0.00,0.00,VWS V14.00,2013-04-10 00:43:00,
2013-04-09 20:48:00,74.7,60.8,29.91,SW,229,6.0,9.0,62,0.00,,---,0.00,0.00,VWS V14.00,2013-04-10 00:48:00,
2013-04-09 20:53:00,74.4,60.5,29.91,SSW,202,5.0,9.0,62,0.00,,---,0.00,0.00,VWS V14.00,2013-04-10 00:53:00,
2013-04-09 20:58:00,74.3,60.9,29.91,SSW,213,5.0,8.0,63,0.00,,---,0.00,0.00,VWS V14.00,2013-04-10 00:58:00,
2013-04-09 21:03:00,74.0,60.6,29.92,WSW,255,5.0,8.0,63,0.00,,---,0.00,0.00,VWS V14.00,2013-04-10 01:03:00,
2013-04-09 21:08:00,73.8,60.4,29.92,SSW,205,6.0,9.0,63,0.00,,---,0.00,0.00,VWS V14.00,2013-04-10 01:08:00,
2013-04-09 21:13:00,73.6,60.7,29.92,SSW,207,4.0,8.0,64,0.00,,---,0.00,0.00,VWS V14.00,2013-04-10 01:13:00,
2013-04-09 21:18:00,73.5,60.6,29.92,SSW,206,8.0,10.0,64,0.00,,---,0.00,0.00,VWS V14.00,2013-04-10 01:18:00,
2013-04-09 21:23:00,73.3,60.8,29.93,SSW,212,6.0,10.0,65,0.00,,---,0.00,0.00,VWS V14.00,2013-04-10 01:23:00,
2013-04-09 21:28:00,73.2,60.7,29.93,SSW,205,7.0,12.0,65,0.00,,---,0.00,0.00,VWS V14.00,2013-04-10 01:28:00,
2013-04-09 21:33:00,73.0,61.0,29.93,SSW,201,10.0,10.0,66,0.00,,---,0.00,0.00,VWS V14.00,2013-04-10 01:33:00,
2013-04-09 21:38:00,72.9,60.9,29.93,SW,223,9.0,9.0,66,0.00,,---,0.00,0.00,VWS V14.00,2013-04-10 01:38:00,
2013-04-09 21:43:00,72.7,60.7,29.94,SW,221,7.0,9.0,66,0.00,,---,0.00,0.00,VWS V14.00,2013-04-10 01:43:00,
2013-04-09 21:48:00,72.5,60.9,29.94,SW,219,7.0,10.0,67,0.00,,---,0.00,0.00,VWS V14.00,2013-04-10 01:48:00,
2013-04-09 21:53:00,72.4,60.8,29.94,SW,223,6.0,10.0,67,0.00,,---,0.00,0.00,VWS V14.00,2013-04-10 01:53:00,
2013-04-09 21:58:00,72.3,61.2,29.94,WSW,239,14.0,14.0,68,0.00,,---,0.00,0.00,VWS V14.00,2013-04-10 01:58:00,
2013-04-09 22:03:00,72.3,61.2,29.95,SW,219,9.0,12.0,68,0.00,,---,0.00,0.00,VWS V14.00,2013-04-10 02:03:00,
2013-04-09 22:08:00,72.2,61.1,29.95,SW,234,4.0,12.0,68,0.00,,---,0.00,0.00,VWS V14.00,2013-04-10 02:08:00,
2013-04-09 22:15:00,72.1,61.4,29.95,SSW,205,4.0,14.0,69,0.00,,---,0.00,0.00,VWS V14.00,2013-04-10 02:15:00,
2013-04-09 22:23:00,72.0,61.3,29.95,WSW,256,4.0,12.0,69,0.00,,---,0.00,0.00,VWS V14.00,2013-04-10 02:23:00,
2013-04-09 22:28:00,71.8,61.1,29.95,WSW,250,7.0,12.0,69,0.00,,---,0.00,0.00,VWS V14.00,2013-04-10 02:28:00,
2013-04-09 22:33:00,71.7,61.4,29.95,WSW,240,5.0,12.0,70,0.00,,---,0.00,0.00,VWS V14.00,2013-04-10 02:33:00,
2013-04-09 22:38:00,71.6,61.3,29.95,West,265,12.0,13.0,70,0.00,,---,0.00,0.00,VWS V14.00,2013-04-10 02:38:00,
2013-04-09 22:43:00,71.7,61.4,29.95,West,269,7.0,15.0,70,0.00,,---,0.00,0.00,VWS V14.00,2013-04-10 02:43:00,
2013-04-09 22:48:00,71.8,61.1,29.95,WSW,238,1.0,10.0,69,0.00,,---,0.00,0.00,VWS V14.00,2013-04-10 02:48:00,
2013-04-09 22:53:00,71.7,61.0,29.95,WNW,284,7.0,11.0,69,0.00,,---,0.00,0.00,VWS V14.00,2013-04-10 02:53:00,
2013-04-09 22:58:00,71.5,61.2,29.95,West,270,10.0,12.0,70,0.00,,---,0.00,0.00,VWS V14.00,2013-04-10 02:58:00,
2013-04-09 23:03:00,71.5,61.2,29.95,SW,236,5.0,9.0,70,0.00,,---,0.00,0.00,VWS V14.00,2013-04-10 03:03:00,
2013-04-09 23:08:00,71.4,61.1,29.95,West,261,4.0,10.0,70,0.00,,---,0.00,0.00,VWS V14.00,2013-04-10 03:08:00,
2013-04-09 23:13:00,71.3,61.0,29.95,WSW,243,8.0,10.0,70,0.00,,---,0.00,0.00,VWS V14.00,2013-04-10 03:13:00,
2013-04-09 23:18:00,71.2,60.9,29.94,WSW,254,5.0,10.0,70,0.00,,---,0.00,0.00,VWS V14.00,2013-04-10 03:18:00,
2013-04-09 23:23:00,71.0,60.7,29.94,WSW,242,8.0,11.0,70,0.00,,---,0.00,0.00,VWS V14.00,2013-04-10 03:23:00,
2013-04-09 23:28:00,71.0,60.7,29.94,West,267,8.0,19.0,70,0.00,,---,0.00,0.00,VWS V14.00,2013-04-10 03:28:00,
2013-04-09 23:33:00,71.0,60.7,29.94,West,265,1.0,8.0,70,0.00,,---,0.00,0.00,VWS V14.00,2013-04-10 03:33:00,
2013-04-09 23:38:00,70.9,60.6,29.94,WSW,250,7.0,10.0,70,0.00,,---,0.00,0.00,VWS V14.00,2013-04-10 03:38:00,
2013-04-09 23:43:00,71.0,60.7,29.94,West,263,2.0,5.0,70,0.00,,---,0.00,0.00,VWS V14.00,2013-04-10 03:43:00,
2013-04-09 23:48:00,70.8,60.9,29.94,SW,234,1.0,7.0,71,0.00,,---,0.00,0.00,VWS V14.00,2013-04-10 03:48:00,
2013-04-09 23:53:00,70.8,60.9,29.94,West,269,1.0,7.0,71,0.00,,---,0.00,0.00,VWS V14.00,2013-04-10 03:53:00,
2013-04-09 23:59:00,70.8,60.9,29.95,WNW,287,6.0,9.0,71,0.00,,---,0.00,0.00,VWS V14.00,2013-04-10 03:59:00,